Regional Weather Roundup
Issued by NWS

Home | Current Version | Previous Version | Text Only | Print | Product List | Glossary Off
Versions: 1 2 3 4 5 6 7 8 9 10 11 12 13 14 15 16 17 18 19 20 21 22 23 24 25 26 27 28 29 30 31 32 33 34 35 36 37 38 39 40 41 42 43 44 45 46 47 48 49 50

000
ASUS43 KFSD 270102
RWRSD

WEATHER ROUNDUP FOR SOUTH DAKOTA
NATIONAL WEATHER SERVICE SIOUX FALLS SD
700 PM CST SUN FEB 26 2017

NOTE: "FAIR" INDICATES FEW OR NO CLOUDS BELOW 12,000 FEET WITH NO
SIGNIFICANT WEATHER AND/OR OBSTRUCTIONS TO VISIBILITY.


SDZ001>005-009-010-012>017-270200-
NORTHWEST AND NORTH CENTRAL SOUTH DAKOTA

CITY           SKY/WX    TMP DP  RH WIND       PRES   REMARKS
BUFFALO          N/A     28  20  71 N10       29.69R WCI  19
FAITH            N/A     31  23  72 NW8       29.76R WCI  23
MOBRIDGE       CLOUDY    32  25  75 NE6       29.75S WCI  26
$$

SDZ012>016-024>037-041>051-057-063-072>074-270200-
SOUTHWEST AND SOUTH CENTRAL SOUTH DAKOTA

CITY           SKY/WX    TMP DP  RH WIND       PRES   REMARKS
RAPID CTY ARPT CLEAR     28  16  60 CALM      29.75R
PIERRE         MOCLDY    36  15  42 W6        29.79R
CUSTER         CLOUDY    18   4  54 W9        29.69S WCI   7
ELLSWORTH AFB  CLEAR     33  13  43 NE7       29.74S WCI  27
PHILIP         CLEAR     32  14  47 SW8       29.80R WCI  25
PINE RIDGE     CLEAR     20  12  71 CALM      29.82R
SPEARFISH      FAIR      28  12  50 NW5       29.73S WCI  23
WINNER         FAIR      30  20  66 SW14      29.84R WCI  19
$$

SDZ004>011-016>023-039-040-270200-
NORTHEAST SOUTH DAKOTA

CITY           SKY/WX    TMP DP  RH WIND       PRES   REMARKS
ABERDEEN       CLOUDY    29  21  72 SE5       29.82S WCI  24
WATERTOWN      CLOUDY    28  19  69 E9        29.82R WCI  19
BROOKINGS      CLEAR     31  25  78 S10       29.84R WCI  22
SISSETON         N/A     22  18  85 SE7       29.87S WCI  13
$$

SDZ017-020-022-023-036>040-048>070-270200-
SOUTHEAST SOUTH DAKOTA

CITY           SKY/WX    TMP DP  RH WIND       PRES   REMARKS
SIOUX FALLS    PTCLDY    31  25  78 SW8       29.88S WCI  23
HURON          CLOUDY    37  19  48 SW7       29.82R
CHAMBERLAIN    PTCLDY    32  22  67 SW8       29.83S WCI  25
MITCHELL       CLEAR     33  23  66 SW9       29.86S WCI  25
YANKTON        CLEAR     34  19  55 S9        29.90S WCI  26
$$

ABBREVIATIONS USED IN REMARKS
   TC - TEMPERATURE IN CELSIUS
  WCI - WIND CHILL INDEX
   HX - HEAT INDEX
  VSB - VISIBILITY





USA.gov is the U.S. government's official web portal to all federal, state and local government web resources and services.